EW8125 Weather Reports


Display with metric or nautical units.
time (UTC)temp
F
wind
direction
speed
MPH
gust
MPH
rain 1hr
in
rain 24hr
in
rain mn
in
humidity
%
barometer
mb
20260506135103 58 83 0.0 3.0 0.00 0.00 0.00 57 1013.7
20260506135012 58 81 0.0 3.0 0.00 0.00 0.00 58 1013.7
20260506134503 57 74 0.0 3.0 0.00 0.00 0.00 57 1013.7
20260506134203 57 80 0.0 2.0 0.00 0.00 0.00 57 1013.7
20260506133903 57 80 0.0 3.0 0.00 0.00 0.00 58 1013.7
20260506133603 57 79 0.0 3.0 0.00 0.00 0.00 58 1013.8
20260506133303 57 70 0.0 3.0 0.00 0.00 0.00 59 1013.8
20260506133003 57 67 0.0 3.0 0.00 0.00 0.00 59 1013.9
20260506132703 57 75 0.0 2.0 0.00 0.00 0.00 58 1013.8
20260506132403 57 78 0.0 4.0 0.00 0.00 0.00 57 1013.9
20260506132103 58 70 1.0 6.0 0.00 0.00 0.00 58 1013.9
20260506131803 58 79 1.0 6.0 0.00 0.00 0.00 58 1013.9
20260506131503 58 86 1.0 6.0 0.00 0.00 0.00 58 1013.9
20260506131203 58 94 1.0 6.0 0.00 0.00 0.00 59 1013.9
20260506130905 58 91 1.0 6.0 0.00 0.00 0.00 57 1013.9
20260506130603 57 85 2.0 6.0 0.00 0.00 0.00 60 1013.8
20260506130303 57 84 1.0 5.0 0.00 0.00 0.00 60 1013.9
20260506130004 57 83 2.0 5.0 0.00 0.00 0.00 58 1013.9
20260506125703 57 83 1.0 5.0 0.00 0.00 0.00 56 1013.9
20260506125404 57 82 1.0 3.0 0.00 0.00 0.00 58 1014.0
20260506125103 57 81 2.0 5.0 0.00 0.00 0.00 56 1014.0
20260506124803 57 81 2.0 5.0 0.00 0.00 0.00 57 1013.9
20260506124503 57 84 2.0 5.0 0.00 0.00 0.00 60 1013.9
20260506124203 57 85 1.0 5.0 0.00 0.00 0.00 57 1013.9
20260506123903 57 85 1.0 3.0 0.00 0.00 0.00 61 1014.1
20260506123603 57 83 1.0 4.0 0.00 0.00 0.00 63 1013.9
20260506123303 56 81 2.0 4.0 0.00 0.00 0.00 59 1014.0
20260506123003 57 82 1.0 5.0 0.00 0.00 0.00 58 1013.9
20260506122703 57 82 1.0 5.0 0.00 0.00 0.00 58 1013.9
20260506122403 57 83 1.0 5.0 0.00 0.00 0.00 61 1014.0
20260506122103 56 81 1.0 6.0 0.00 0.00 0.00 60 1013.9
20260506121804 56 81 1.0 6.0 0.00 0.00 0.00 59 1013.9
20260506121503 56 79 1.0 6.0 0.00 0.00 0.00 58 1014.0
20260506121203 56 74 1.0 5.0 0.00 0.00 0.00 59 1014.1
20260506120903 56 82 1.0 6.0 0.00 0.00 0.00 60 1014.0
20260506120604 56 96 1.0 6.0 0.00 0.00 0.00 59 1014.1
20260506120303 56 108 1.0 6.0 0.00 0.00 0.00 57 1014.1
20260506120003 57 119 1.0 4.0 0.00 0.00 0.00 60 1014.1
20260506115703 57 106 1.0 2.0 0.00 0.00 0.00 58 1014.1
20260506115614 57 101 1.0 2.0 0.00 0.00 0.00 59 1014.2
20260506115103 56 89 1.0 2.0 0.00 0.00 0.00 61 1014.2
20260506114803 56 91 1.0 4.0 0.00 0.00 0.00 61 1014.2
20260506114503 56 91 1.0 4.0 0.00 0.00 0.00 64 1014.3
20260506114203 56 91 1.0 4.0 0.00 0.00 0.00 62 1014.2
20260506113903 56 94 1.0 2.0 0.00 0.00 0.00 60 1014.3
20260506113603 56 88 1.0 2.0 0.00 0.00 0.00 61 1014.2
20260506113512 56 90 1.0 2.0 0.00 0.00 0.00 63 1014.2
20260506113003 56 85 1.0 2.0 0.00 0.00 0.00 62 1014.4
20260506112703 56 84 1.0 6.0 0.00 0.00 0.00 62 1014.3
20260506112614 56 85 1.0 6.0 0.00 0.00 0.00 63 1014.4
20260506112313 56 86 1.0 6.0 0.00 0.00 0.00 62 1014.3
20260506112013 56 85 1.0 6.0 0.00 0.00 0.00 60 1014.3
20260506111503 56 86 1.0 3.0 0.00 0.00 0.00 62 1014.4
20260506111203 56 91 1.0 3.0 0.00 0.00 0.00 64 1014.4
20260506110904 56 92 1.0 3.0 0.00 0.00 0.00 63 1014.4
20260506110603 56 89 1.0 3.0 0.00 0.00 0.00 62 1014.3
20260506110303 56 88 1.0 3.0 0.00 0.00 0.00 61 1014.4
20260506110214 56 89 1.0 2.0 0.00 0.00 0.00 63 1014.3
20260506105703 56 94 1.0 2.0 0.00 0.00 0.00 62 1014.3
20260506105405 56 95 1.0 2.0 0.00 0.00 0.00 58 1014.5
20260506105103 57 94 1.0 2.0 0.00 0.00 0.00 59 1014.4
20260506104803 58 96 1.0 2.0 0.00 0.00 0.00 60 1014.4
20260506104503 58 109 0.0 2.0 0.00 0.00 0.00 60 1014.4
20260506104413 59 109 0.0 2.0 0.00 0.00 0.00 59 1014.4
20260506103903 59 94 0.0 2.0 0.00 0.00 0.00 60 1014.4
20260506103603 59 134 0.0 2.0 0.00 0.00 0.00 61 1014.3
20260506103303 58 118 0.0 2.0 0.00 0.00 0.00 63 1014.2
20260506103003 58 117 0.0 2.0 0.00 0.00 0.00 60 1014.4
20260506102913 58 121 0.0 2.0 0.00 0.00 0.00 63 1014.4
20260506102403 58 100 0.0 2.0 0.00 0.00 0.00 64 1014.4
20260506102313 58 100 0.0 2.0 0.00 0.00 0.00 63 1014.4
20260506101803 58 328 0.0 1.0 0.00 0.00 0.00 64 1014.4
20260506101503 57 35 0.0 1.0 0.00 0.00 0.00 64 1014.4
20260506101412 57 70 0.0 3.0 0.00 0.00 0.00 64 1014.4
20260506101112 57 80 0.0 3.0 0.00 0.00 0.00 64 1014.4
20260506100603 56 89 0.0 3.0 0.00 0.00 0.00 67 1014.4
20260506100303 56 93 0.0 2.0 0.00 0.00 0.00 65 1014.4
20260506100003 56 111 0.0 2.0 0.00 0.00 0.00 65 1014.4
20260506095703 55 100 0.0 2.0 0.00 0.00 0.00 66 1014.4
20260506095404 55 98 0.0 2.0 0.00 0.00 0.00 64 1014.4
20260506095103 56 87 0.0 2.0 0.00 0.00 0.00 65 1014.3
20260506094803 56 74 0.0 2.0 0.00 0.00 0.00 63 1014.3
20260506094714 56 75 0.0 2.0 0.00 0.00 0.00 65 1014.3
20260506094203 55 64 0.0 2.0 0.00 0.00 0.00 65 1014.3
20260506093903 55 87 0.0 1.0 0.00 0.00 0.00 66 1014.3
20260506093814 55 87 0.0 1.0 0.00 0.00 0.00 66 1014.3
20260506093514 54 83 0.0 1.0 0.00 0.00 0.00 68 1014.3
20260506093003 53 83 0.0 1.0 0.00 0.00 0.00 68 1014.4
20260506092703 52 84 0.0 2.0 0.00 0.00 0.00 66 1014.4
20260506092404 52 84 0.0 2.0 0.00 0.00 0.00 69 1014.4
20260506092103 52 85 0.0 2.0 0.00 0.00 0.00 69 1014.5
20260506091803 52 87 0.0 2.0 0.00 0.00 0.00 71 1014.5
20260506091714 52 86 0.0 2.0 0.00 0.00 0.00 72 1014.5
20260506091203 52 93 0.0 2.0 0.00 0.00 0.00 71 1014.4
20260506090903 52 94 0.0 1.0 0.00 0.00 0.00 70 1014.5
20260506090603 52 84 0.0 1.0 0.00 0.00 0.00 72 1014.5
20260506090513 52 81 0.0 1.0 0.00 0.00 0.00 71 1014.5
20260506090003 51 78 0.0 1.0 0.00 0.00 0.00 72 1014.5
20260506085703 51 82 0.0 1.0 0.00 0.00 0.00 72 1014.5
20260506085403 51 82 0.0 1.0 0.00 0.00 0.00 73 1014.5
20260506085313 51 82 0.0 1.0 0.00 0.00 0.00 73 1014.4
20260506084803 50 84 0.0 2.0 0.00 0.00 0.00 74 1014.5
20260506084503 50 84 0.0 2.0 0.00 0.00 0.00 76 1014.4
20260506084204 50 99 0.0 2.0 0.00 0.00 0.00 76 1014.4
20260506083904 49 123 0.0 1.0 0.00 0.00 0.00 76 1014.4
20260506083604 49 121 0.0 1.0 0.00 0.00 0.00 74 1014.4
20260506083303 48 125 0.0 2.0 0.00 0.00 0.00 75 1014.4
20260506083003 48 126 0.0 2.0 0.00 0.00 0.00 74 1014.4
20260506082703 48 130 0.0 2.0 0.00 0.00 0.00 74 1014.5
20260506082612 48 130 0.0 2.0 0.00 0.00 0.00 74 1014.4
20260506082103 48 134 0.0 1.0 0.00 0.00 0.00 74 1014.4
20260506082012 48 134 0.0 1.0 0.00 0.00 0.00 74 1014.4
20260506081714 48 137 0.0 1.0 0.00 0.00 0.00 76 1014.4
20260506081203 48 134 0.0 1.0 0.00 0.00 0.00 78 1014.5
20260506081113 48 136 0.0 1.0 0.00 0.00 0.00 77 1014.5
20260506080603 48 139 0.0 1.0 0.00 0.00 0.00 78 1014.5
20260506080303 48 139 0.0 1.0 0.00 0.00 0.00 79 1014.4
20260506080213 47 139 0.0 1.0 0.00 0.00 0.00 79 1014.5
20260506073303 46 0 0.0 0.0 0.00 0.00 0.00 81 1014.3
20260506073003 46 0 0.0 0.0 0.00 0.00 0.00 80 1014.4
20260506072703 46 0 0.0 0.0 0.00 0.00 0.00 81 1014.3
20260506072403 46 0 0.0 0.0 0.00 0.00 0.00 81 1014.3
20260506072103 46 0 0.0 0.0 0.00 0.00 0.00 82 1014.3
20260506072014 46 0 0.0 0.0 0.00 0.00 0.00 82 1014.3
20260506071503 46 174 0.0 1.0 0.00 0.00 0.00 82 1014.3
20260506071203 46 174 0.0 1.0 0.00 0.00 0.00 82 1014.3
20260506070903 46 172 0.0 1.0 0.00 0.00 0.00 82 1014.2
20260506070603 46 172 0.0 1.0 0.00 0.00 0.00 82 1014.2
20260506070303 46 0 0.0 0.0 0.00 0.00 0.00 82 1014.1
20260506062403 46 30 0.0 1.0 0.00 0.00 0.00 84 1014.0
20260506062314 46 30 0.0 1.0 0.00 0.00 0.00 84 1014.0
20260506061804 46 30 0.0 1.0 0.00 0.00 0.00 84 1014.1
20260506061504 46 30 0.0 1.0 0.00 0.00 0.00 84 1013.9
20260506061413 46 0 0.0 0.0 0.00 0.00 0.00 84 1013.9
20260506060903 45 0 0.0 0.0 0.00 0.00 0.00 83 1013.9
20260506060812 45 0 0.0 0.0 0.00 0.00 0.00 83 1013.9
20260506060303 45 0 0.0 0.0 0.00 0.00 0.00 84 1013.9
20260506051203 45 0 0.0 0.0 0.00 0.00 0.00 81 1013.7
20260506050904 45 0 0.0 0.0 0.00 0.00 0.00 81 1013.6
20260506050603 45 0 0.0 0.0 0.00 0.00 0.00 80 1013.7
20260506050303 45 0 0.0 0.0 0.00 0.00 0.00 80 1013.6
20260506045103 45 59 0.0 1.0 0.00 0.00 0.00 80 1013.6
20260506044803 45 45 0.0 1.0 0.00 0.00 0.00 80 1013.6
20260506044503 45 26 0.0 1.0 0.00 0.00 0.00 80 1013.5
20260506044203 45 10 0.0 1.0 0.00 0.00 0.00 81 1013.5
20260506043903 45 45 0.0 1.0 0.00 0.00 0.00 81 1013.5
20260506043603 45 46 0.0 1.0 0.00 0.00 0.00 81 1013.6
20260506043303 45 46 0.0 1.0 0.00 0.00 0.00 80 1013.6
20260506043213 45 46 0.0 1.0 0.00 0.00 0.00 81 1013.6
20260506042705 46 46 0.0 1.0 0.00 0.00 0.00 81 1013.6
20260506042403 46 50 0.0 3.0 0.00 0.00 0.00 80 1013.5
20260506042103 46 53 0.0 3.0 0.00 0.00 0.00 80 1013.5
20260506041803 46 55 0.0 3.0 0.00 0.00 0.00 80 1013.5
20260506041504 46 84 0.0 1.0 0.00 0.00 0.00 80 1013.5
20260506041203 46 84 0.0 1.0 0.00 0.00 0.00 81 1013.6
20260506040903 46 91 0.0 1.0 0.00 0.00 0.00 81 1013.6
20260506040603 46 99 0.0 1.0 0.00 0.00 0.00 80 1013.5
20260506040303 46 96 0.0 1.0 0.00 0.00 0.00 80 1013.6
20260506040003 46 87 0.0 1.0 0.00 0.00 0.00 80 1013.6
20260506035704 46 79 0.0 1.0 0.00 0.00 0.00 80 1013.6
20260506035613 46 63 0.0 2.0 0.00 0.00 0.00 80 1013.6
20260506035103 46 358 0.0 3.0 0.00 0.00 0.00 82 1013.6
20260506034803 46 342 0.0 3.0 0.00 0.00 0.00 83 1013.7
20260506034503 46 346 0.0 1.0 0.00 0.00 0.00 83 1013.6
20260506034203 46 345 0.0 1.0 0.00 0.00 0.00 83 1013.6
20260506034114 46 345 0.0 1.0 0.00 0.00 0.00 83 1013.6
20260506033813 46 345 0.0 1.0 0.00 0.00 0.00 82 1013.6
20260506033303 46 55 0.0 3.0 0.00 0.00 0.00 83 1013.7
20260506033213 46 55 0.0 3.0 0.00 0.00 0.00 83 1013.6
20260506032703 47 36 0.0 3.0 0.00 0.00 0.00 83 1013.6
20260506032403 47 16 0.0 2.0 0.00 0.00 0.00 83 1013.6
20260506032104 47 312 0.0 2.0 0.00 0.00 0.00 83 1013.7
20260506032012 47 312 0.0 2.0 0.00 0.00 0.00 83 1013.7
20260506031503 47 110 0.0 1.0 0.00 0.00 0.00 83 1013.6
20260506031203 47 110 0.0 1.0 0.00 0.00 0.00 83 1013.7
20260506030903 47 110 0.0 1.0 0.00 0.00 0.00 83 1013.8
20260506030603 47 110 0.0 1.0 0.00 0.00 0.00 82 1013.7
20260506030303 47 109 0.0 1.0 0.00 0.00 0.00 82 1013.7
20260506030005 47 108 0.0 2.0 0.00 0.00 0.00 83 1013.8
20260506025703 47 118 0.0 2.0 0.00 0.00 0.00 83 1013.7
20260506025403 47 118 0.0 2.0 0.00 0.00 0.00 83 1013.7
20260506025103 47 174 0.0 1.0 0.00 0.00 0.00 83 1013.7
20260506024803 47 140 0.0 1.0 0.00 0.00 0.00 83 1013.7
20260506024503 47 146 0.0 1.0 0.00 0.00 0.00 83 1013.6
20260506024203 47 146 0.0 1.0 0.00 0.00 0.00 83 1013.7
20260506024114 47 146 0.0 1.0 0.00 0.00 0.00 83 1013.7
20260506023603 47 136 0.0 1.0 0.00 0.00 0.00 83 1013.6
20260506023303 47 142 0.0 1.0 0.00 0.00 0.00 83 1013.6
20260506023213 47 137 0.0 1.0 0.00 0.00 0.00 83 1013.6
20260506022704 47 98 0.0 2.0 0.00 0.00 0.00 83 1013.6
20260506022612 47 98 0.0 2.0 0.00 0.00 0.00 83 1013.6
20260506022103 47 87 0.0 1.0 0.00 0.00 0.00 83 1013.6
20260506022014 48 87 0.0 1.0 0.00 0.00 0.00 83 1013.6
20260506021505 48 101 0.0 3.0 0.00 0.00 0.00 83 1013.6
20260506021203 48 102 0.0 3.0 0.00 0.00 0.00 83 1013.7
20260506021113 48 102 0.0 3.0 0.00 0.00 0.00 82 1013.7
20260506020603 48 108 0.0 1.0 0.00 0.00 0.00 82 1013.7
20260506020515 48 108 0.0 1.0 0.00 0.00 0.00 82 1013.7
20260506020003 48 97 0.0 1.0 0.00 0.00 0.00 82 1013.7
20260506015705 48 95 0.0 1.0 0.00 0.00 0.00 82 1013.6
20260506015614 48 95 0.0 1.0 0.00 0.00 0.00 82 1013.6
20260506015103 48 74 0.0 1.0 0.00 0.00 0.00 82 1013.5
20260506014803 48 75 0.0 1.0 0.00 0.00 0.00 82 1013.5
20260506014503 48 71 0.0 2.0 0.00 0.00 0.00 81 1013.5
20260506014413 48 70 0.0 2.0 0.00 0.00 0.00 81 1013.5
20260506013903 48 61 0.0 2.0 0.00 0.00 0.00 81 1013.6
20260506013603 48 51 0.0 1.0 0.00 0.00 0.00 82 1013.6
20260506013512 48 49 0.0 1.0 0.00 0.00 0.00 83 1013.6
20260506013003 48 67 0.0 2.0 0.00 0.00 0.00 83 1013.6
20260506012912 48 67 0.0 2.0 0.00 0.00 0.00 83 1013.6
20260506012403 48 70 0.0 2.0 0.00 0.00 0.00 82 1013.6
20260506012103 49 81 0.0 1.0 0.00 0.00 0.00 82 1013.7
20260506011803 49 76 0.0 2.0 0.00 0.00 0.00 82 1013.6
20260506011503 49 74 0.0 2.0 0.00 0.00 0.00 82 1013.6
20260506011203 49 74 0.0 2.0 0.00 0.00 0.00 82 1013.7
20260506010903 49 66 0.0 2.0 0.00 0.00 0.00 82 1013.7
20260506010603 49 67 0.0 2.0 0.00 0.00 0.00 82 1013.7
20260506010303 49 66 0.0 2.0 0.00 0.00 0.00 82 1013.7
20260506010003 49 67 0.0 1.0 0.00 0.00 0.00 83 1013.7
20260506005703 49 61 0.0 2.0 0.00 0.00 0.00 82 1013.7
20260506005404 49 64 0.0 2.0 0.00 0.00 0.00 83 1013.6
20260506005103 49 76 0.0 2.0 0.00 0.00 0.00 84 1013.7
20260506004803 49 119 0.0 1.0 0.00 0.00 0.00 84 1013.7
20260506004503 49 123 0.0 1.0 0.00 0.00 0.00 84 1013.6
20260506004203 49 115 0.0 1.0 0.00 0.00 0.00 84 1013.6
20260506003903 49 67 0.0 1.0 0.00 0.00 0.00 84 1013.7
20260506003603 49 67 0.0 1.0 0.00 0.00 0.00 84 1013.7
20260506003303 49 42 0.0 1.0 0.00 0.00 0.00 84 1013.7
20260506003003 49 350 0.0 2.0 0.00 0.00 0.00 84 1013.6
20260506002703 49 355 0.0 2.0 0.00 0.00 0.00 84 1013.7
20260506002614 49 359 0.0 2.0 0.00 0.00 0.00 83 1013.8
20260506002103 49 10 0.0 3.0 0.00 0.00 0.00 83 1013.8
20260506001803 49 15 0.0 3.0 0.00 0.00 0.00 83 1013.8
20260506001503 49 25 0.0 3.0 0.00 0.00 0.00 82 1013.8
20260506001203 49 70 0.0 2.0 0.00 0.00 0.00 82 1013.7
20260506000903 49 56 0.0 2.0 0.00 0.00 0.00 82 1013.8
20260506000604 49 22 0.0 2.0 0.00 0.00 0.00 82 1013.8
20260506000303 49 346 0.0 2.0 0.00 0.00 0.00 83 1013.7
20260506000003 49 346 0.0 2.0 0.00 0.00 0.00 82 1013.7
20260505235703 49 338 0.0 2.0 0.00 0.00 0.00 82 1013.6
20260505235403 49 107 0.0 2.0 0.00 0.00 0.00 82 1013.7
20260505235103 49 0 0.0 0.0 0.00 0.00 0.00 82 1013.7
20260505235013 49 0 0.0 0.0 0.00 0.00 0.00 82 1013.7
20260505234503 49 0 0.0 0.0 0.00 0.00 0.00 82 1013.7
20260505234203 49 0 0.0 0.0 0.00 0.00 0.00 82 1013.7
20260505234112 49 0 0.0 0.0 0.00 0.00 0.00 82 1013.7
20260505233603 49 0 0.0 0.0 0.00 0.00 0.00 81 1013.7
20260505233303 49 11 0.0 1.0 0.00 0.00 0.00 81 1013.6
20260505233214 49 11 0.0 1.0 0.00 0.00 0.00 82 1013.8
20260505232705 49 11 0.0 1.0 0.00 0.00 0.00 82 1013.7
20260505232403 49 2 0.0 1.0 0.00 0.00 0.00 82 1013.9
20260505232103 49 360 0.0 1.0 0.00 0.00 0.00 82 1013.8
20260505231803 49 360 0.0 1.0 0.00 0.00 0.00 82 1013.7
20260505231503 49 0 0.0 0.0 0.00 0.00 0.00 82 1013.8
20260505231203 49 0 0.0 0.0 0.00 0.00 0.00 82 1013.8
20260505230903 49 0 0.0 0.0 0.00 0.00 0.00 82 1013.8
20260505230814 49 0 0.0 0.0 0.00 0.00 0.00 82 1013.8
20260505230303 49 0 0.0 0.0 0.00 0.00 0.00 82 1013.8
20260505230004 49 0 0.0 0.0 0.00 0.00 0.00 82 1013.8
20260505225915 49 0 0.0 0.0 0.00 0.00 0.00 82 1013.8
20260505225403 49 0 0.0 0.0 0.00 0.00 0.00 82 1013.9
20260505225103 49 0 0.0 0.0 0.00 0.00 0.00 82 1013.8
20260505224804 49 0 0.0 0.0 0.00 0.00 0.00 83 1013.8
20260505224503 49 0 0.0 0.0 0.00 0.00 0.00 82 1013.8
20260505224203 49 0 0.0 0.0 0.00 0.00 0.00 83 1013.8
20260505224114 49 0 0.0 0.0 0.00 0.00 0.00 83 1013.8
20260505223603 49 0 0.0 0.0 0.00 0.00 0.00 83 1013.8
20260505223303 49 0 0.0 0.0 0.00 0.00 0.00 82 1013.8
20260505223215 49 0 0.0 0.0 0.00 0.00 0.00 82 1013.8
20260505222703 49 0 0.0 0.0 0.00 0.00 0.00 82 1013.8
20260505222403 49 0 0.0 0.0 0.00 0.00 0.00 83 1013.8
20260505222105 49 0 0.0 0.0 0.00 0.00 0.00 82 1013.8
20260505221803 49 0 0.0 0.0 0.00 0.00 0.00 82 1013.8
20260505221503 49 0 0.0 0.0 0.00 0.00 0.00 82 1013.8
20260505221204 49 193 0.0 2.0 0.00 0.00 0.00 82 1013.7
20260505220903 49 181 0.0 2.0 0.00 0.00 0.00 82 1013.8
20260505220604 49 181 0.0 2.0 0.00 0.00 0.00 82 1013.7
20260505220303 49 141 0.0 1.0 0.00 0.00 0.00 82 1013.7
20260505220003 49 0 0.0 0.0 0.00 0.00 0.00 82 1013.6
20260505215703 49 0 0.0 0.0 0.00 0.00 0.00 82 1013.7
20260505215403 49 0 0.0 0.0 0.00 0.00 0.00 82 1013.7
20260505215312 50 0 0.0 0.0 0.00 0.00 0.00 82 1013.7
20260505214803 50 0 0.0 0.0 0.00 0.00 0.00 82 1013.6
20260505214503 50 0 0.0 0.0 0.00 0.00 0.00 82 1013.7
20260505214203 50 0 0.0 0.0 0.00 0.00 0.00 81 1013.7
20260505214113 50 0 0.0 0.0 0.00 0.00 0.00 81 1013.7
20260505213603 50 0 0.0 0.0 0.00 0.00 0.00 81 1013.7
20260505213303 50 0 0.0 0.0 0.00 0.00 0.00 81 1013.7
20260505213215 50 0 0.0 0.0 0.00 0.00 0.00 81 1013.7
20260505212703 50 0 0.0 0.0 0.00 0.00 0.00 81 1013.6
20260505212403 50 0 0.0 0.0 0.00 0.00 0.00 81 1013.7
20260505212103 50 0 0.0 0.0 0.00 0.00 0.00 81 1013.6
20260505211803 50 0 0.0 0.0 0.00 0.00 0.00 81 1013.7
20260505211503 50 0 0.0 0.0 0.00 0.00 0.00 81 1013.6
20260505211203 50 0 0.0 0.0 0.00 0.00 0.00 81 1013.7
20260505211113 50 0 0.0 0.0 0.00 0.00 0.00 81 1013.7
20260505210813 50 0 0.0 0.0 0.00 0.00 0.00 81 1013.7
20260505210303 50 0 0.0 0.0 0.00 0.00 0.00 81 1013.7
20260505210003 50 0 0.0 0.0 0.00 0.00 0.00 81 1013.6
20260505205703 50 0 0.0 0.0 0.00 0.00 0.00 81 1013.7
20260505205403 50 0 0.0 0.0 0.00 0.00 0.00 80 1013.6
20260505205104 50 0 0.0 0.0 0.00 0.00 0.00 80 1013.7
20260505204803 50 0 0.0 0.0 0.00 0.00 0.00 80 1013.7
20260505204503 50 0 0.0 0.0 0.00 0.00 0.00 80 1013.7
20260505204203 50 0 0.0 0.0 0.00 0.00 0.00 80 1013.7
20260505203903 50 0 0.0 0.0 0.00 0.00 0.00 80 1013.7
20260505203603 50 0 0.0 0.0 0.00 0.00 0.00 80 1013.7
20260505203303 50 109 0.0 2.0 0.00 0.00 0.00 80 1013.7
20260505203004 50 105 0.0 2.0 0.00 0.00 0.00 79 1013.7
20260505202703 50 105 0.0 2.0 0.00 0.00 0.00 80 1013.7
20260505202614 50 105 0.0 2.0 0.00 0.00 0.00 79 1013.7
20260505202103 50 0 0.0 0.0 0.00 0.00 0.00 80 1013.7
20260505201803 50 125 0.0 1.0 0.00 0.00 0.00 79 1013.6
20260505201503 50 114 0.0 1.0 0.00 0.00 0.00 79 1013.6
20260505201203 50 114 0.0 1.0 0.00 0.00 0.00 79 1013.6
20260505200903 50 100 0.0 1.0 0.00 0.00 0.00 79 1013.5
20260505200603 50 97 0.0 1.0 0.00 0.00 0.00 79 1013.5
20260505200303 50 91 0.0 1.0 0.00 0.00 0.00 79 1013.4
20260505200003 51 87 0.0 1.0 0.00 0.00 0.00 79 1013.5
20260505195704 51 86 0.0 1.0 0.00 0.00 0.00 78 1013.4
20260505195403 51 65 0.0 1.0 0.00 0.00 0.00 78 1013.4
20260505195103 51 7 0.0 1.0 0.00 0.00 0.00 78 1013.2
20260505195016 51 7 0.0 1.0 0.00 0.00 0.00 78 1013.3
20260505194503 51 259 0.0 1.0 0.00 0.00 0.00 78 1013.3
20260505194413 51 259 0.0 1.0 0.00 0.00 0.00 78 1013.3
20260505193904 51 0 0.0 1.0 0.00 0.00 0.00 78 1013.2
20260505193603 51 0 0.0 0.0 0.00 0.00 0.00 78 1013.1
20260505193303 51 244 0.0 1.0 0.00 0.00 0.00 77 1013.2
20260505193003 51 244 0.0 1.0 0.00 0.00 0.00 77 1013.1
20260505192703 51 258 0.0 1.0 0.00 0.00 0.00 77 1013.2
20260505192403 51 269 0.0 1.0 0.00 0.00 0.00 77 1013.1
20260505192313 51 269 0.0 1.0 0.00 0.00 0.00 77 1013.1
20260505191803 52 269 0.0 1.0 0.00 0.00 0.00 76 1013.1
20260505191503 52 0 0.0 0.0 0.00 0.00 0.00 76 1013.1
20260505191204 52 0 0.0 0.0 0.00 0.00 0.00 76 1013.1
20260505190903 52 269 0.0 1.0 0.00 0.00 0.00 75 1013.1
20260505190603 52 269 0.0 1.0 0.00 0.00 0.00 75 1013.1
20260505190303 52 269 0.0 1.0 0.00 0.00 0.00 76 1013.0
20260505190003 52 299 0.0 1.0 0.00 0.00 0.00 76 1013.0
20260505185703 52 299 0.0 1.0 0.00 0.00 0.00 76 1013.0
20260505185403 52 99 0.0 2.0 0.00 0.00 0.00 76 1012.9
20260505185103 52 127 0.0 2.0 0.00 0.00 0.00 75 1013.0
20260505184803 52 125 0.0 2.0 0.00 0.00 0.00 76 1013.0
20260505184503 53 122 0.0 2.0 0.00 0.00 0.00 76 1013.0
20260505184203 53 217 0.0 1.0 0.00 0.00 0.00 76 1013.0
20260505183904 53 0 0.0 0.0 0.00 0.00 0.00 75 1013.0
20260505183603 53 0 0.0 0.0 0.00 0.00 0.00 75 1013.0
20260505183514 53 0 0.0 0.0 0.00 0.00 0.00 75 1013.1
20260505183003 53 0 0.0 0.0 0.00 0.00 0.00 77 1013.0
20260505182913 54 0 0.0 0.0 0.00 0.00 0.00 77 1012.9
20260505182403 54 0 0.0 0.0 0.00 0.00 0.00 76 1012.9
20260505182103 54 121 0.0 1.0 0.00 0.00 0.00 75 1013.0
20260505181803 54 38 0.0 1.0 0.00 0.00 0.00 75 1013.0
20260505181503 54 50 0.0 1.0 0.00 0.00 0.00 75 1012.9
20260505181412 54 50 0.0 1.0 0.00 0.00 0.00 74 1012.9
20260505180903 54 57 0.0 1.0 0.00 0.00 0.00 72 1013.0
20260505180814 55 65 0.0 1.0 0.00 0.00 0.00 72 1013.1
20260505180514 55 78 0.0 1.0 0.00 0.00 0.00 74 1013.0
20260505180003 55 77 0.0 1.0 0.00 0.00 0.00 73 1013.0
20260505175703 55 74 0.0 1.0 0.00 0.00 0.00 75 1013.0
20260505175403 55 70 0.0 1.0 0.00 0.00 0.00 73 1013.0
20260505175103 55 83 0.0 2.0 0.00 0.00 0.00 73 1013.1
20260505174803 55 85 0.0 2.0 0.00 0.00 0.00 73 1013.0
20260505174503 55 87 0.0 2.0 0.00 0.00 0.00 71 1013.0
20260505174412 56 89 0.0 2.0 0.00 0.00 0.00 72 1013.0
20260505173903 56 226 0.0 1.0 0.00 0.00 0.00 72 1013.1
20260505173814 56 226 0.0 1.0 0.00 0.00 0.00 71 1013.1
20260505173514 56 226 0.0 1.0 0.00 0.00 0.00 71 1013.1
20260505173003 56 0 0.0 0.0 0.00 0.00 0.00 70 1013.0
20260505172703 56 75 0.0 1.0 0.00 0.00 0.00 70 1013.0
20260505172403 56 75 0.0 1.0 0.00 0.00 0.00 72 1013.1
20260505172103 56 75 0.0 1.0 0.00 0.00 0.00 74 1013.1
20260505172012 56 75 0.0 1.0 0.00 0.00 0.00 74 1013.1
20260505171503 56 0 0.0 0.0 0.00 0.00 0.00 73 1013.2
20260505171203 56 0 0.0 0.0 0.00 0.00 0.00 73 1013.1
20260505170903 56 0 0.0 0.0 0.00 0.00 0.00 73 1013.2
20260505170603 56 0 0.0 0.0 0.00 0.00 0.00 73 1013.1
20260505170513 56 0 0.0 0.0 0.00 0.00 0.00 72 1013.1
20260505170003 56 194 0.0 1.0 0.00 0.00 0.00 72 1013.2
20260505165703 56 194 0.0 1.0 0.00 0.00 0.00 73 1013.1
20260505165403 56 0 0.0 0.0 0.00 0.00 0.00 71 1013.1
20260505165103 56 237 0.0 1.0 0.00 0.00 0.00 68 1013.2
20260505164803 57 237 0.0 1.0 0.00 0.00 0.00 67 1013.1
20260505164503 57 237 0.0 1.0 0.00 0.00 0.00 67 1013.2
20260505164204 57 236 0.0 1.0 0.00 0.00 0.00 67 1013.1
20260505164114 58 236 0.0 1.0 0.00 0.00 0.00 67 1013.1
20260505163813 58 236 0.0 1.0 0.00 0.00 0.00 67 1013.1
20260505163303 59 236 0.0 1.0 0.00 0.00 0.00 65 1013.2
20260505163003 59 237 0.0 1.0 0.00 0.00 0.00 67 1013.1
20260505162703 59 237 0.0 1.0 0.00 0.00 0.00 65 1013.1
20260505162403 59 210 0.0 1.0 0.00 0.00 0.00 65 1013.1
20260505162103 59 208 0.0 1.0 0.00 0.00 0.00 65 1013.1
20260505161803 59 216 0.0 1.0 0.00 0.00 0.00 65 1013.1
20260505161503 60 216 0.0 1.0 0.00 0.00 0.00 66 1013.1
20260505161203 60 231 0.0 1.0 0.00 0.00 0.00 64 1013.1
20260505160903 60 231 0.0 1.0 0.00 0.00 0.00 62 1013.1
20260505160603 61 231 0.0 1.0 0.00 0.00 0.00 61 1013.1
20260505160303 61 231 0.0 1.0 0.00 0.00 0.00 60 1013.1
20260505153303 63 107 0.0 2.0 0.00 0.00 0.00 59 1013.4
20260505153003 62 81 0.0 2.0 0.00 0.00 0.00 60 1013.3
20260505152913 62 99 0.0 2.0 0.00 0.00 0.00 57 1013.4
20260505152403 62 65 0.0 2.0 0.00 0.00 0.00 62 1013.4
20260505152103 62 109 0.0 1.0 0.00 0.00 0.00 63 1013.3
20260505151803 61 108 0.0 1.0 0.00 0.00 0.00 61 1013.4
20260505151503 61 120 0.0 2.0 0.00 0.00 0.00 63 1013.3
20260505151203 61 124 0.0 2.0 0.00 0.00 0.00 63 1013.4
20260505150903 61 116 0.0 2.0 0.00 0.00 0.00 60 1013.3
20260505150603 61 108 0.0 2.0 0.00 0.00 0.00 60 1013.4
20260505150303 61 93 0.0 2.0 0.00 0.00 0.00 60 1013.4
20260505140603 62 164 0.0 2.0 0.00 0.00 0.00 65 1013.6
20260505140303 62 140 0.0 3.0 0.00 0.00 0.00 66 1013.5